• In Uzbekistan
  • List of Countries
  • For 7 days
  • Water Temperature
  • Satellite Maps
  • Weather Map
  • Weather Widgets
  • user-avatar
    Login

    Hourly Weather Badhan

    Today, 21 February, Wednesday

    Time Temperature Precipitation Wind Pressure Humidity
    00:00 +21°C° 0 mm 3 mps 654 mmHg 63%
    01:00 +21°C° 0 mm 2 mps 654 mmHg 66%
    02:00 +20°C° 0 mm 2 mps 654 mmHg 69%
    03:00 +19°C° 0 mm 2 mps 653 mmHg 72%
    04:00 +19°C° 0 mm 2 mps 654 mmHg 75%
    05:00 +18°C° 0 mm 2 mps 654 mmHg 77%
    06:00 +18°C° 0 mm 2 mps 654 mmHg 80%
    07:00 +19°C° 0 mm 2 mps 654 mmHg 72%
    08:00 +21°C° 0 mm 2 mps 655 mmHg 64%
    09:00 +23°C° 0 mm 2 mps 656 mmHg 54%
    10:00 +25°C° 0 mm 2 mps 656 mmHg 47%
    11:00 +26°C° 0 mm 2 mps 656 mmHg 39%
    12:00 +28°C° 0 mm 2 mps 656 mmHg 32%
    13:00 +29°C° 0 mm 3 mps 656 mmHg 29%
    14:00 +29°C° 0 mm 3 mps 655 mmHg 27%
    15:00 +30°C° 0 mm 4 mps 655 mmHg 22%
    16:00 +29°C° 0 mm 4 mps 655 mmHg 25%
    17:00 +28°C° 0 mm 5 mps 655 mmHg 27%
    18:00 +27°C° 0 mm 6 mps 655 mmHg 30%
    19:00 +26°C° 0 mm 5 mps 654 mmHg 34%
    20:00 +25°C° 0 mm 5 mps 654 mmHg 38%
    21:00 +23°C° 0 mm 5 mps 654 mmHg 42%
    22:00 +22°C° 0 mm 4 mps 654 mmHg 46%
    23:00 +21°C° 0 mm 4 mps 654 mmHg 50%

    Tomorrow, 22 February, Thursday

    Time Temperature Precipitation Wind Pressure Humidity
    00:00 +20°C° 0 mm 3 mps 654 mmHg 54%
    01:00 +20°C° 0 mm 2 mps 653 mmHg 57%
    02:00 +19°C° 0 mm 2 mps 653 mmHg 61%
    03:00 +19°C° 0 mm 1 mps 653 mmHg 64%
    04:00 +19°C° 0 mm 1 mps 653 mmHg 67%
    05:00 +18°C° 0 mm 2 mps 653 mmHg 69%
    06:00 +17°C° 0 mm 2 mps 653 mmHg 72%
    07:00 +19°C° 0 mm 2 mps 654 mmHg 65%
    08:00 +20°C° 0 mm 2 mps 654 mmHg 59%
    09:00 +22°C° 0 mm 3 mps 655 mmHg 52%
    10:00 +25°C° 0 mm 3 mps 655 mmHg 43%
    11:00 +27°C° 0 mm 3 mps 655 mmHg 34%
    12:00 +29°C° 0 mm 3 mps 656 mmHg 25%
    13:00 +29°C° 0 mm 4 mps 655 mmHg 23%
    14:00 +30°C° 0 mm 4 mps 655 mmHg 22%
    15:00 +30°C° 0 mm 4 mps 655 mmHg 21%
    16:00 +29°C° 0 mm 4 mps 654 mmHg 23%
    17:00 +28°C° 0 mm 4 mps 654 mmHg 25%
    18:00 +27°C° 0 mm 5 mps 654 mmHg 27%
    19:00 +26°C° 0 mm 4 mps 654 mmHg 30%
    20:00 +25°C° 0 mm 4 mps 654 mmHg 33%
    21:00 +23°C° 0 mm 4 mps 654 mmHg 36%
    22:00 +22°C° 0 mm 3 mps 654 mmHg 41%
    23:00 +21°C° 0 mm 3 mps 654 mmHg 46%

    Day after tomorrow, 23 February, Friday

    Time Temperature Precipitation Wind Pressure Humidity
    00:00 +20°C° 0 mm 2 mps 654 mmHg 51%
    01:00 +20°C° 0 mm 2 mps 653 mmHg 55%
    02:00 +20°C° 0 mm 1 mps 653 mmHg 59%
    03:00 +19°C° 0 mm 1 mps 652 mmHg 63%
    04:00 +19°C° 0 mm 1 mps 652 mmHg 66%
    05:00 +18°C° 0 mm 1 mps 653 mmHg 68%
    06:00 +18°C° 0 mm 1 mps 653 mmHg 71%
    07:00 +20°C° 0 mm 1 mps 654 mmHg 63%
    08:00 +21°C° 0 mm 1 mps 654 mmHg 56%
    09:00 +23°C° 0 mm 2 mps 655 mmHg 48%
    10:00 +25°C° 0 mm 2 mps 655 mmHg 40%
    11:00 +27°C° 0 mm 2 mps 655 mmHg 32%
    12:00 +29°C° 0 mm 3 mps 655 mmHg 24%
    13:00 +29°C° 0 mm 3 mps 655 mmHg 23%
    14:00 +30°C° 0 mm 4 mps 654 mmHg 22%
    15:00 +30°C° 0 mm 4 mps 654 mmHg 20%
    16:00 +30°C° 0 mm 4 mps 654 mmHg 23%
    17:00 +29°C° 0 mm 5 mps 654 mmHg 25%
    18:00 +28°C° 0 mm 5 mps 653 mmHg 28%
    19:00 +27°C° 0 mm 4 mps 654 mmHg 32%
    20:00 +25°C° 0 mm 4 mps 654 mmHg 36%
    21:00 +23°C° 0 mm 4 mps 655 mmHg 41%
    22:00 +22°C° 0 mm 4 mps 654 mmHg 47%
    23:00 +21°C° 0 mm 3 mps 654 mmHg 52%

    24 February, Saturday

    Time Temperature Precipitation Wind Pressure Humidity
    00:00 +20°C° 0 mm 3 mps 654 mmHg 58%
    01:00 +20°C° 0 mm 2 mps 653 mmHg 63%
    02:00 +19°C° 0 mm 2 mps 653 mmHg 67%
    03:00 +19°C° 0 mm 1 mps 652 mmHg 71%
    04:00 +19°C° 0 mm 1 mps 653 mmHg 73%
    05:00 +18°C° 0 mm 1 mps 653 mmHg 74%
    06:00 +18°C° 0 mm 1 mps 653 mmHg 76%
    07:00 +20°C° 0 mm 1 mps 654 mmHg 66%
    08:00 +21°C° 0 mm 1 mps 655 mmHg 56%
    09:00 +23°C° 0 mm 1 mps 656 mmHg 46%
    10:00 +25°C° 0 mm 1 mps 655 mmHg 40%
    11:00 +27°C° 0 mm 2 mps 655 mmHg 33%
    12:00 +28°C° 0 mm 2 mps 655 mmHg 27%
    13:00 +29°C° 0 mm 2 mps 655 mmHg 25%
    14:00 +30°C° 0 mm 3 mps 654 mmHg 24%
    15:00 +30°C° 0 mm 3 mps 654 mmHg 22%
    16:00 +30°C° 0 mm 3 mps 654 mmHg 23%
    17:00 +29°C° 0 mm 4 mps 654 mmHg 24%
    18:00 +28°C° 0 mm 4 mps 654 mmHg 26%
    19:00 +27°C° 0 mm 4 mps 654 mmHg 28%
    20:00 +26°C° 0 mm 4 mps 655 mmHg 31%
    21:00 +25°C° 0 mm 4 mps 655 mmHg 34%
    22:00 +23°C° 0 mm 4 mps 654 mmHg 42%
    23:00 +22°C° 0 mm 4 mps 654 mmHg 50%

    25 February, Sunday

    Time Temperature Precipitation Wind Pressure Humidity
    00:00 +20°C° 0 mm 4 mps 653 mmHg 58%
    01:00 +20°C° 0 mm 3 mps 653 mmHg 66%
    02:00 +19°C° 0 mm 3 mps 652 mmHg 74%
    03:00 +18°C° 0 mm 2 mps 652 mmHg 81%
    04:00 +18°C° 0 mm 2 mps 652 mmHg 83%
    05:00 +17°C° 0 mm 2 mps 653 mmHg 84%
    06:00 +18°C° 0 mm 1 mps 653 mmHg 85%
    07:00 +19°C° 0 mm 1 mps 654 mmHg 79%
    08:00 +20°C° 0 mm 1 mps 654 mmHg 72%
    09:00 +21°C° 0 mm 1 mps 655 mmHg 65%
    10:00 +23°C° 0 mm 1 mps 655 mmHg 55%
    11:00 +25°C° 0 mm 2 mps 655 mmHg 45%
    12:00 +27°C° 0 mm 2 mps 655 mmHg 36%
    13:00 +28°C° 0 mm 2 mps 655 mmHg 34%
    14:00 +29°C° 0 mm 2 mps 655 mmHg 32%
    15:00 +30°C° 0 mm 1 mps 654 mmHg 31%
    16:00 +29°C° 0 mm 2 mps 655 mmHg 32%
    17:00 +29°C° 0 mm 2 mps 655 mmHg 33%
    18:00 +29°C° 0 mm 2 mps 655 mmHg 34%
    19:00 +28°C° 0 mm 3 mps 655 mmHg 37%
    20:00 +27°C° 0 mm 3 mps 656 mmHg 39%
    21:00 +26°C° 0 mm 3 mps 656 mmHg 42%
    22:00 +25°C° 0 mm 3 mps 655 mmHg 46%
    23:00 +23°C° 0 mm 4 mps 655 mmHg 49%

    26 February, Monday

    Time Temperature Precipitation Wind Pressure Humidity
    00:00 +22°C° 0 mm 4 mps 654 mmHg 53%
    01:00 +21°C° 0 mm 4 mps 654 mmHg 61%
    02:00 +21°C° 0 mm 3 mps 653 mmHg 68%
    03:00 +20°C° 0 mm 3 mps 653 mmHg 75%
    04:00 +19°C° 0 mm 2 mps 653 mmHg 78%
    05:00 +19°C° 0 mm 2 mps 653 mmHg 81%
    06:00 +18°C° 0 mm 2 mps 654 mmHg 84%
    07:00 +19°C° 0 mm 2 mps 654 mmHg 78%
    08:00 +20°C° 0 mm 2 mps 655 mmHg 72%
    09:00 +21°C° 0 mm 2 mps 655 mmHg 66%
    10:00 +24°C° 0 mm 2 mps 655 mmHg 57%
    11:00 +26°C° 0 mm 2 mps 655 mmHg 49%
    12:00 +28°C° 0 mm 2 mps 655 mmHg 41%
    13:00 +28°C° 0 mm 2 mps 655 mmHg 38%
    14:00 +29°C° 0 mm 2 mps 654 mmHg 36%
    15:00 +30°C° 0 mm 2 mps 654 mmHg 33%
    16:00 +29°C° 0 mm 3 mps 654 mmHg 35%
    17:00 +29°C° 0 mm 3 mps 654 mmHg 36%
    18:00 +29°C° 0 mm 4 mps 655 mmHg 37%
    19:00 +28°C° 0 mm 4 mps 655 mmHg 40%
    20:00 +27°C° 0 mm 4 mps 655 mmHg 42%
    21:00 +26°C° 0 mm 5 mps 656 mmHg 45%
    22:00 +25°C° 0 mm 5 mps 655 mmHg 54%
    23:00 +23°C° 0 mm 5 mps 655 mmHg 62%
    Show more